[[{"header":{"parameterUnit":"m.s-1","parameterCategory":1,"la1":30.2991,"la2":30.254,"lo1":-89.0895,"lo2":-89.0444,"dy":0.0017,"dx":0.0017,"nx":28,"ny":28,"refTime":"2023-08-06T03:00:00:Z","depth":0,"parameterNumber":2,"parameterNumberName":"U-component_of_WINDS"},"data":[0,0,0,0,0,0,0,0,0,0,0,0,0,0,0,0,0,0,0,0,0,0,0,0,0,0,0,0,0,0,0,0,0,0,0,0,0,0,0,0,0,0,0,0,0,0,0,0,0,0,0,0,0,0,0,0,0,0,4.862,4.8622,0,4.8792,4.8794,4.8796,4.8754,4.8751,4.8747,4.8744,4.8922,4.893,4.8937,0,0,0,0,0,0,0,0,0,0,0,0,0,4.8257,4.8264,4.862,4.8622,4.8624,4.8791,4.8794,4.8796,4.8755,4.8751,4.8747,4.8743,4.892,4.8929,4.8938,0,0,0,0,0,0,0,0,0,0,0,0,0,4.842,4.8266,4.8619,4.8623,4.8626,4.8791,4.8794,4.8797,4.8756,4.8751,4.8746,4.8741,4.8916,4.8928,4.8939,4.9112,0,0,4.8975,4.898,0,0,0,0,0,0,0,0,4.8411,4.8434,4.8621,4.8623,4.8626,4.8746,4.8731,4.8902,4.8757,4.8706,4.8744,4.8739,4.8868,4.8883,4.8926,4.912,4.9128,4.8976,4.8983,4.8989,4.8992,0,0,0,0,0,0,0,4.84,4.8426,4.8688,4.8623,4.8627,4.8617,4.8635,4.8763,4.8813,4.871,4.8708,4.8729,4.8868,4.8915,4.893,4.913,4.8976,4.8986,4.8994,4.8998,4.9474,4.9479,0,0,0,0,0,0,4.8386,4.8417,4.8682,4.8693,4.8504,4.8628,4.8647,4.8713,4.8811,4.8822,4.8733,4.8726,4.8898,4.8917,4.8936,4.9144,4.8988,4.8999,4.9006,4.9468,4.9475,4.9481,0,0,0,0,0,0,4.8378,4.841,4.8675,4.8554,4.8587,4.8639,4.8713,4.8719,4.8766,4.8828,4.8837,4.8771,4.8894,4.892,4.9068,4.915,4.9005,4.9015,4.9462,4.947,4.9478,4.9562,0,0,0,0,0,0,4.8368,4.8407,4.8473,4.8556,4.8594,4.8804,4.8718,4.8726,4.8786,4.8779,4.8867,4.8877,4.8892,4.9051,4.908,4.9163,4.9025,4.9454,4.9465,4.9475,4.9552,4.9572,4.9589,0,0,0,0,0,4.8355,4.849,4.8477,4.8509,4.8677,4.8809,4.8831,4.8845,4.8793,4.8859,4.8899,4.8874,4.9136,4.9066,4.9099,4.9187,4.9449,4.9462,4.9474,4.9544,4.9568,4.9589,0,0,0,0,0,0,4.8417,4.8501,4.8487,4.8653,4.8724,4.8802,4.8886,4.8871,4.8959,4.8949,4.8964,4.8984,4.9136,4.9176,4.9097,4.9359,4.9285,4.9305,4.9327,4.9351,4.9369,4.9356,4.9034,0,0,0,0,0,4.8449,4.8549,4.8618,4.8758,4.8794,4.8834,4.8892,4.8897,4.8972,4.9002,4.9053,4.9126,4.9225,4.929,4.9385,4.9558,4.9576,4.9634,4.9653,4.9668,4.9685,4.9779,4.9806,4.9522,4.9522,4.9522,0,0,4.8518,4.8577,4.8639,4.8771,4.8827,4.893,4.886,4.8972,4.9049,4.9019,4.9162,4.9202,4.9285,4.9447,4.952,4.9485,4.9767,4.9684,4.9695,4.9704,4.9795,4.9822,4.9845,4.9531,4.9529,4.9528,0,0,4.8696,4.8751,4.8873,4.893,4.9015,4.9041,4.907,4.915,4.9175,4.9319,4.9299,4.9391,4.9561,4.9621,4.9674,4.9874,4.9854,4.9905,5.0002,5.0094,5.0116,5.0136,5.0208,5.0233,4.9921,4.9922,4.9922,0,4.8771,4.8925,4.8938,4.9052,4.9111,4.9088,4.9212,4.9267,4.9379,4.942,4.9379,4.9592,4.9646,4.9821,4.987,4.9914,4.9948,4.9895,5.0112,5.0132,5.0151,5.0219,5.0246,4.9927,4.9926,4.9926,4.9925,0,4.9013,4.9121,4.9209,4.9317,4.9386,4.9505,4.9535,4.9604,4.9603,4.9633,4.978,4.9844,4.9951,4.9993,4.9994,5.0169,5.0144,5.0108,5.0034,5.0183,5.0248,5.0274,4.9935,4.9933,4.9931,4.993,0,0,4.9235,4.9348,4.938,4.9429,4.9521,4.9604,4.9722,4.9826,4.9884,4.9962,5.0061,5.0205,5.0172,5.0232,5.0239,5.032,5.0475,5.0273,5.0275,5.0308,5.0671,5.0698,5.0728,5.0462,5.0467,5.0471,5.0664,0,4.9422,4.9628,4.9642,4.9829,4.9928,4.9908,5.0011,5.0078,5.011,5.0199,5.0234,5.0336,5.0284,5.032,5.0399,5.0439,5.0548,5.0425,5.0555,5.0559,5.0534,5.0762,5.0791,5.097,5.0689,5.0694,5.0697,0,4.9667,4.9751,4.9948,5.0025,5.0067,5.0159,5.0255,5.0341,5.0417,5.0434,5.0501,5.0497,5.0618,5.054,5.0707,5.0624,5.0677,5.0705,5.0713,5.0725,5.0637,5.0781,5.1028,5.1055,5.0737,5.0734,5.0731,0,4.9809,4.9972,5.011,5.0152,5.0246,5.0311,5.0353,5.0424,5.0486,5.0571,5.0611,5.0709,5.0762,5.0838,5.0861,5.0802,5.1028,5.0951,5.1046,5.1045,5.1094,5.1091,5.1353,5.1129,5.1129,5.1128,5.1128,0,5.0015,5.0136,5.0175,5.026,5.0395,5.0411,5.0544,5.0582,5.0646,5.0739,5.0727,5.0815,5.0839,5.0931,5.095,5.1085,5.111,5.1127,5.1131,5.1129,5.1126,5.1164,5.1152,5.1135,5.1134,5.1132,5.1131,0,5.0197,5.0228,5.0377,5.0454,5.0476,5.0572,5.0637,5.0719,5.0749,5.0866,5.0895,5.0941,5.1049,5.1079,5.1208,5.122,5.138,5.1372,5.1354,5.1354,5.1446,5.1437,5.1742,5.1783,5.1532,5.1535,5.1537,0,5.0327,5.0419,5.0505,5.0566,5.0611,5.0709,5.0771,5.079,5.0856,5.095,5.1021,5.1126,5.1212,5.1385,5.1431,5.153,5.1524,5.1624,5.1539,5.1533,5.1526,5.152,5.1529,5.164,5.1643,5.1645,5.1647,0,5.0554,5.0564,5.0654,5.0751,5.0825,5.0902,5.0975,5.1026,5.1055,5.113,5.1239,5.1305,5.1437,5.1542,5.1642,5.1686,5.1672,5.1673,5.17,5.1699,5.1684,5.1693,5.1398,5.1666,5.1664,5.1663,5.1662,5.1661,5.0714,5.0795,5.0868,5.0969,5.1025,5.1094,5.1175,5.1214,5.1305,5.1413,5.1419,5.1538,5.1612,5.1744,5.1794,5.1887,5.1858,5.1897,5.1907,5.1916,5.1924,5.1669,5.1905,5.1905,5.1904,5.1904,5.1904,0,5.094,5.0986,5.1078,5.1181,5.126,5.1239,5.1319,5.1387,5.1491,5.1561,5.1645,5.1771,5.1873,5.1927,5.2028,5.2093,5.2089,5.2119,5.2114,5.2125,5.1945,5.1911,5.212,5.212,5.212,5.212,5.212,5.212,5.1067,5.1203,5.1222,5.1386,5.1431,5.1547,5.1594,5.1658,5.1713,5.1854,5.1938,5.1972,5.2036,5.2142,5.2235,5.2248,5.2286,5.2319,5.2329,5.216,5.2138,5.2116,5.2085,5.2327,5.2328,5.2501,5.2503,5.2504]},{"header":{"parameterUnit":"m.s-1","parameterCategory":1,"la1":30.2991,"la2":30.254,"lo1":-89.0895,"lo2":-89.0444,"dy":0.0017,"dx":0.0017,"nx":28,"ny":28,"refTime":"2023-08-06T03:00:00:Z","depth":0,"parameterNumber":3,"parameterNumberName":"V-component_of_WINDS"},"data":[0,0,0,0,0,0,0,0,0,0,0,0,0,0,0,0,0,0,0,0,0,0,0,0,0,0,0,0,0,0,0,0,0,0,0,0,0,0,0,0,0,0,0,0,0,0,0,0,0,0,0,0,0,0,0,0,0,0,-0.2614,-0.2615,0,-0.2661,-0.2661,-0.2662,-0.2697,-0.2698,-0.2698,-0.2698,-0.2744,-0.2744,-0.2745,0,0,0,0,0,0,0,0,0,0,0,0,0,-0.2554,-0.2555,-0.2614,-0.2615,-0.2615,-0.2661,-0.2661,-0.2662,-0.2697,-0.2698,-0.2698,-0.2698,-0.2743,-0.2744,-0.2745,0,0,0,0,0,0,0,0,0,0,0,0,0,-0.2588,-0.2555,-0.2614,-0.2638,-0.2641,-0.2661,-0.2661,-0.2662,-0.2697,-0.2698,-0.2698,-0.2699,-0.2743,-0.2744,-0.2746,-0.2744,0,0,-0.275,-0.275,0,0,0,0,0,0,0,0,-0.2586,-0.259,-0.2634,-0.2637,-0.264,-0.2674,-0.2657,-0.2689,-0.2697,-0.2676,-0.2698,-0.2699,-0.272,-0.2723,-0.2731,-0.2746,-0.2748,-0.275,-0.2751,-0.2751,-0.2752,0,0,0,0,0,0,0,-0.2584,-0.2588,-0.2633,-0.2635,-0.2638,-0.2646,-0.2652,-0.2663,-0.2694,-0.2678,-0.268,-0.2685,-0.2721,-0.2729,-0.2732,-0.2749,-0.275,-0.2751,-0.2752,-0.2752,-0.2765,-0.2764,0,0,0,0,0,0,-0.2578,-0.2586,-0.2631,-0.2634,-0.2614,-0.2647,-0.2653,-0.2662,-0.2694,-0.27,-0.2685,-0.2687,-0.2727,-0.273,-0.2734,-0.2734,-0.2751,-0.2752,-0.2753,-0.2765,-0.2765,-0.2764,0,0,0,0,0,0,-0.2576,-0.2581,-0.2629,-0.2611,-0.2618,-0.2648,-0.2658,-0.2663,-0.2671,-0.27,-0.2705,-0.2687,-0.2727,-0.2732,-0.2741,-0.2736,-0.2753,-0.2754,-0.2766,-0.2765,-0.2764,-0.2734,0,0,0,0,0,0,-0.2574,-0.2581,-0.2581,-0.2611,-0.2618,-0.2636,-0.2657,-0.2663,-0.2673,-0.2676,-0.2704,-0.2709,-0.2728,-0.2739,-0.2742,-0.2738,-0.2755,-0.2766,-0.2765,-0.2765,-0.2735,-0.2732,-0.2729,0,0,0,0,0,-0.2572,-0.257,-0.2581,-0.2586,-0.2619,-0.2636,-0.264,-0.2663,-0.2673,-0.2673,-0.2691,-0.2708,-0.2736,-0.274,-0.2744,-0.274,-0.2767,-0.2766,-0.2765,-0.2737,-0.2733,-0.2729,0,0,0,0,0,0,-0.2538,-0.2574,-0.2586,-0.2594,-0.2612,-0.2642,-0.2643,-0.2658,-0.2673,-0.2675,-0.2703,-0.2708,-0.2715,-0.2728,-0.2732,-0.274,-0.2753,-0.2753,-0.2731,-0.2727,-0.2724,-0.272,-0.2756,0,0,0,0,0,-0.2531,-0.2542,-0.2573,-0.2577,-0.2585,-0.2612,-0.262,-0.2637,-0.2656,-0.2663,-0.2683,-0.27,-0.2713,-0.2721,-0.2734,-0.2738,-0.2744,-0.2737,-0.2734,-0.2731,-0.273,-0.2733,-0.273,-0.2761,-0.2761,-0.2761,0,0,-0.2517,-0.2538,-0.2544,-0.257,-0.2586,-0.2596,-0.2618,-0.2628,-0.2636,-0.2665,-0.2675,-0.269,-0.2711,-0.2717,-0.2721,-0.2729,-0.2723,-0.273,-0.2727,-0.2728,-0.2731,-0.2728,-0.2726,-0.276,-0.276,-0.276,0,0,-0.2497,-0.2515,-0.2519,-0.2535,-0.2559,-0.2577,-0.2578,-0.2606,-0.2617,-0.2628,-0.265,-0.2659,-0.2681,-0.2695,-0.2705,-0.2691,-0.2706,-0.2695,-0.2678,-0.268,-0.2678,-0.2676,-0.267,-0.2668,-0.2694,-0.2694,-0.2694,0,-0.2477,-0.2494,-0.252,-0.2529,-0.2539,-0.2567,-0.2571,-0.2585,-0.2611,-0.2618,-0.2626,-0.2654,-0.2671,-0.268,-0.2677,-0.2684,-0.2686,-0.2691,-0.2676,-0.2675,-0.2673,-0.2668,-0.2666,-0.2692,-0.2692,-0.2692,-0.2693,0,-0.2467,-0.2479,-0.248,-0.2506,-0.2517,-0.2523,-0.2549,-0.2557,-0.2573,-0.259,-0.26,-0.2621,-0.2639,-0.2643,-0.2658,-0.2655,-0.2659,-0.2671,-0.2686,-0.2668,-0.2664,-0.2662,-0.269,-0.269,-0.2691,-0.2691,0,0,-0.2426,-0.2467,-0.2467,-0.2479,-0.2507,-0.2516,-0.2524,-0.2543,-0.2549,-0.2566,-0.2573,-0.2591,-0.2603,-0.2614,-0.2631,-0.2633,-0.262,-0.2645,-0.2646,-0.264,-0.2618,-0.2608,-0.2605,-0.2631,-0.263,-0.263,-0.2616,0,-0.241,-0.2427,-0.245,-0.2458,-0.2469,-0.2495,-0.2502,-0.252,-0.2536,-0.2547,-0.2565,-0.2577,-0.2592,-0.2599,-0.2602,-0.2621,-0.2616,-0.2622,-0.2636,-0.2637,-0.263,-0.2603,-0.2592,-0.2578,-0.2614,-0.2614,-0.2614,0,-0.2394,-0.2411,-0.242,-0.2448,-0.2453,-0.2459,-0.2478,-0.2488,-0.2509,-0.2521,-0.2534,-0.2552,-0.2561,-0.2574,-0.2587,-0.2591,-0.2598,-0.2608,-0.2608,-0.261,-0.2624,-0.2603,-0.2574,-0.2571,-0.2612,-0.2612,-0.2612,0,-0.2363,-0.2387,-0.2396,-0.2406,-0.2439,-0.2442,-0.2456,-0.2477,-0.2487,-0.2503,-0.2509,-0.2526,-0.2535,-0.2547,-0.257,-0.2577,-0.2579,-0.2595,-0.2589,-0.2588,-0.2587,-0.2587,-0.2558,-0.2593,-0.2593,-0.2593,-0.2593,0,-0.2342,-0.2347,-0.2383,-0.2388,-0.2394,-0.2421,-0.2425,-0.2441,-0.246,-0.2469,-0.2492,-0.25,-0.2529,-0.2539,-0.2557,-0.2564,-0.2568,-0.2577,-0.2582,-0.2575,-0.2574,-0.258,-0.2581,-0.2592,-0.2593,-0.2593,-0.2593,0,-0.2308,-0.2332,-0.2343,-0.2374,-0.2382,-0.2384,-0.241,-0.2416,-0.2434,-0.2444,-0.2448,-0.2476,-0.249,-0.2513,-0.2534,-0.2545,-0.2549,-0.2557,-0.2542,-0.2545,-0.2538,-0.2538,-0.2511,-0.2508,-0.2545,-0.2545,-0.2544,0,-0.2293,-0.2297,-0.2328,-0.2336,-0.2349,-0.2361,-0.2371,-0.2397,-0.2407,-0.2431,-0.2434,-0.245,-0.2463,-0.2484,-0.2506,-0.2521,-0.2529,-0.2519,-0.2532,-0.2525,-0.2529,-0.2528,-0.2528,-0.2516,-0.2515,-0.2515,-0.2514,0,-0.2263,-0.2275,-0.2289,-0.2308,-0.2319,-0.2335,-0.2351,-0.2356,-0.2386,-0.2396,-0.2411,-0.2421,-0.2443,-0.2458,-0.2476,-0.249,-0.2507,-0.251,-0.251,-0.2502,-0.2493,-0.2498,-0.2534,-0.2511,-0.2511,-0.2511,-0.2511,-0.2512,-0.2238,-0.2243,-0.2266,-0.228,-0.2296,-0.2311,-0.2318,-0.2337,-0.235,-0.237,-0.2385,-0.2398,-0.2419,-0.2446,-0.2458,-0.2469,-0.2477,-0.2476,-0.2476,-0.2475,-0.2472,-0.2492,-0.2473,-0.2473,-0.2473,-0.2473,-0.2473,0,-0.2209,-0.2226,-0.2239,-0.2262,-0.2273,-0.2289,-0.2309,-0.2317,-0.2329,-0.2347,-0.2361,-0.2377,-0.2392,-0.2415,-0.2432,-0.2436,-0.2444,-0.2439,-0.2439,-0.2441,-0.2464,-0.2463,-0.2432,-0.2432,-0.2432,-0.2432,-0.2432,-0.2432,-0.2196,-0.2205,-0.222,-0.2237,-0.2253,-0.2267,-0.2276,-0.229,-0.2305,-0.2323,-0.2335,-0.2351,-0.2371,-0.2389,-0.2403,-0.241,-0.2414,-0.2407,-0.2415,-0.2436,-0.244,-0.2443,-0.2442,-0.2408,-0.2408,-0.2392,-0.2392,-0.2392]}]]